Temp
-8 -7 -8 -8 -7 -6 -5 -5 -5 -5 -5 -6 -5 -6 -6 -6 -6 -6 -6 -6 -6 -6 -5 -7 -6 -5 -5 -5 -6 -5 -3 -2 1 3 4 4 4 4 4 4 3 4 3 3
-7 -7 -6 -7 -7 -7 -6 -5 -5 -5 -6 -6 -6 -6 -7 -7 -7 -7 -8 -7 -8 -7 -6 -8 -7 -7 -7 -7 -7 -5 -4 -4 -3 -3 -1 0 1 0 3 2 2 3 2 3
-8 -7 -5 -7 -8 -8 -8 -8 -7 -8 -8 -6 -6 -7 -8 -8 -7 -7 -8 -8 -8 -7 -5 -5 -5 -5 -5 -5 -5 -5 -5 -6 -6 -5 -5 -4 -3 -2 -3 -4 -2 -1 0 -0
-8 -7 -11 -9 -8 -8 -8 -9 -9 -9 -8 -8 -8 -8 -8 -9 -9 -9 -9 -8 -8 -8 -7 -7 -5 -5 -6 -5 -5 -4 -4 -4 -4 -4 -5 -6 -6 -5 -4 -4 -4 -3 -2 -3
-9 -8 -8 -8 -8 -8 -8 -9 -9 -9 -9 -8 -9 -8 -7 -8 -8 -8 -8 -8 -7 -7 -6 -6 -6 -6 -6 -5 -5 -5 -5 -5 -4 -4 -4 -4 -4 -4 -4 -4 -5 -6 -6 -4
-9 -9 -9 -9 -8 -8 -8 -10 -10 -10 -9 -9 -8 -7 -7 -7 -7 -8 -8 -7 -7 -7 -6 -6 -6 -6 -6 -5 -5 -5 -5 -5 -5 -5 -5 -4 -4 -4 -3 -3 -4 -4 -3 -3
-9 -9 -9 -9 -9 -8 -9 -10 -10 -9 -9 -9 -8 -9 -9 -8 -8 -8 -7 -7 -7 -7 -7 -6 -6 -6 -6 -6 -6 -5 -5 -5 -5 -5 -5 -5 -5 -4 -4 -4 -4 -4 -3 -3
-9 -9 -10 -9 -8 -9 -10 -10 -10 -9 -9 -8 -8 -8 -8 -8 -7 -7 -7 -6 -6 -6 -6 -6 -6 -6 -6 -6 -6 -6 -6 -6 -6 -6 -6 -5 -5 -5 -5 -4 -4 -4 -4 -4
-9 -9 -9 -9 -10 -10 -10 -10 -10 -9 -8 -8 -8 -8 -8 -7 -7 -7 -7 -7 -7 -7 -7 -7 -7 -7 -7 -7 -7 -7 -7 -7 -7 -6 -6 -6 -6 -6 -5 -5 -5 -5 -4 -4
-9 -9 -9 -9 -9 -10 -10 -10 -10 -10 -9 -9 -8 -8 -8 -8 -7 -7 -7 -7 -7 -7 -7 -7 -7 -8 -8 -7 -7 -8 -8 -8 -8 -8 -7 -7 -6 -6 -6 -5 -5 -5 -5 -4
-9 -9 -9 -10 -10 -10 -10 -10 -10 -10 -9 -9 -9 -8 -8 -8 -8 -7 -7 -7 -7 -7 -7 -7 -8 -8 -8 -8 -8 -8 -9 -9 -9 -9 -8 -8 -7 -7 -6 -6 -5 -5 -5 -5
-10 -10 -10 -10 -10 -11 -11 -11 -11 -10 -10 -9 -9 -9 -9 -8 -8 -8 -8 -8 -8 -8 -8 -8 -8 -9 -9 -9 -10 -10 -10 -10 -10 -9 -8 -8 -7 -7 -7 -6 -6 -6 -6 -5
-10 -10 -10 -10 -11 -11 -11 -11 -11 -10 -10 -10 -10 -10 -9 -9 -9 -8 -8 -8 -8 -8 -8 -8 -8 -9 -9 -10 -10 -10 -11 -11 -10 -10 -10 -9 -8 -7 -5 -6 -6 -5 -6 -6
-10 -10 -9 -10 -11 -11 -11 -11 -11 -10 -10 -10 -10 -10 -9 -9 -9 -9 -9 -9 -9 -9 -9 -9 -9 -9 -9 -10 -10 -11 -11 -11 -11 -11 -10 -10 -9 -8 -7 -6 -6 -6 -7 -7
-10 -9 -10 -10 -11 -11 -11 -11 -10 -10 -10 -10 -10 -10 -10 -10 -10 -10 -10 -10 -10 -10 -10 -10 -9 -9 -9 -10 -10 -11 -11 -11 -11 -11 -11 -10 -9 -9 -8 -7 -7 -7 -7 -7
-9 -9 -10 -10 -10 -10 -11 -11 -11 -11 -11 -11 -11 -11 -11 -11 -11 -11 -10 -10 -10 -10 -10 -10 -10 -10 -10 -10 -10 -10 -11 -11 -11 -11 -10 -10 -10 -9 -8 -8 -8 -8 -8 -8
-10 -10 -10 -10 -10 -11 -11 -11 -11 -11 -11 -11 -11 -11 -11 -11 -11 -12 -12 -11 -11 -11 -11 -11 -11 -10 -11 -10 -10 -11 -11 -11 -12 -11 -10 -10 -10 -10 -10 -11 -11 -10 -10 -10
-10 -10 -10 -11 -11 -11 -12 -12 -12 -12 -12 -12 -12 -12 -12 -12 -12 -13 -13 -13 -12 -12 -12 -12 -12 -11 -11 -11 -11 -11 -11 -12 -12 -12 -11 -11 -11 -11 -10 -11 -11 -11 -11 -11
-10 -11 -11 -11 -11 -12 -11 -11 -11 -11 -12 -12 -12 -12 -12 -13 -13 -13 -13 -14 -14 -13 -13 -13 -12 -12 -11 -11 -11 -11 -11 -12 -12 -11 -11 -11 -11 -11 -10 -11 -11 -12 -12 -12
-11 -11 -11 -12 -11 -11 -11 -11 -11 -11 -12 -12 -12 -12 -13 -14 -14 -15 -15 -15 -15 -15 -14 -14 -13 -12 -12 -12 -12 -11 -11 -12 -12 -12 -12 -12 -12 -11 -10 -11 -12 -12 -11 -12
-11 -12 -12 -11 -11 -11 -11 -11 -11 -11 -11 -12 -12 -13 -13 -14 -14 -15 -16 -16 -15 -15 -15 -14 -14 -13 -13 -12 -12 -11 -12 -12 -12 -12 -12 -12 -12 -11 -11 -10 -11 -11 -12 -11
-11 -11 -11 -11 -11 -11 -11 -11 -11 -11 -11 -12 -12 -13 -14 -15 -15 -15 -15 -16 -15 -15 -15 -14 -14 -13 -13 -12 -12 -12 -12 -12 -12 -12 -12 -12 -12 -12 -11 -11 -11 -11 -11 -11
-12 -12 -12 -11 -11 -11 -11 -11 -11 -11 -12 -12 -13 -14 -15 -16 -16 -16 -16 -16 -16 -16 -15 -15 -14 -14 -14 -13 -13 -12 -12 -12 -12 -12 -12 -12 -13 -12 -12 -11 -11 -11 -10 -10
-12 -12 -12 -12 -11 -11 -11 -11 -12 -12 -12 -13 -14 -15 -15 -16 -16 -16 -16 -16 -16 -16 -16 -15 -15 -14 -14 -14 -13 -13 -12 -13 -12 -12 -12 -12 -12 -13 -12 -12 -12 -11 -11 -11
-13 -12 -12 -12 -12 -11 -12 -12 -12 -12 -13 -14 -15 -15 -16 -16 -16 -16 -16 -16 -17 -17 -16 -16 -15 -15 -15 -14 -14 -13 -13 -13 -12 -12 -13 -12 -13 -12 -12 -12 -12 -12 -11 -11
-13 -13 -13 -13 -12 -12 -12 -12 -12 -13 -13 -14 -15 -16 -16 -16 -16 -16 -16 -16 -16 -17 -17 -16 -16 -15 -15 -15 -14 -14 -13 -13 -13 -12 -12 -12 -12 -12 -12 -12 -12 -12 -12 -11
-13 -13 -13 -13 -12 -12 -12 -12 -13 -13 -14 -14 -15 -16 -16 -16 -16 -16 -16 -16 -16 -16 -16 -16 -16 -15 -15 -15 -14 -14 -14 -13 -13 -12 -12 -12 -11 -11 -11 -11 -12 -12 -11 -11
Height
2972 2970 2964 2956 2947 2939 2931 2928 2924 2925 2926 2927 2930 2931 2931 2930 2929 2931 2934 2935 2937 2931 2928 2931 2928 2932 2933 2935 2937 2938 2939 2943 2946 2953 2957 2961 2966 2972 2975 2980 2984 2989 2997 3001
2966 2963 2961 2961 2954 2947 2939 2935 2932 2932 2933 2934 2934 2934 2935 2933 2936 2937 2939 2940 2940 2939 2936 2939 2938 2944 2938 2941 2941 2941 2942 2942 2944 2945 2948 2953 2957 2954 2960 2968 2972 2978 2983 2992
2968 2963 2959 2957 2958 2958 2952 2946 2942 2942 2945 2941 2939 2939 2941 2943 2944 2946 2947 2946 2948 2947 2944 2945 2942 2942 2947 2946 2950 2951 2942 2945 2950 2948 2951 2951 2953 2955 2958 2955 2964 2971 2974 2980
2975 2968 2973 2974 2968 2966 2964 2958 2954 2953 2951 2948 2946 2947 2950 2952 2953 2954 2956 2949 2951 2951 2946 2952 2949 2948 2943 2946 2949 2947 2944 2949 2949 2952 2953 2956 2956 2955 2956 2958 2959 2964 2967 2972
2981 2978 2978 2975 2970 2967 2966 2964 2961 2958 2958 2957 2956 2958 2956 2958 2957 2956 2955 2954 2954 2951 2950 2951 2955 2956 2954 2948 2944 2938 2950 2944 2948 2948 2952 2953 2956 2955 2956 2957 2957 2963 2964 2967
2984 2983 2982 2981 2974 2971 2969 2969 2966 2964 2964 2963 2964 2962 2960 2959 2958 2958 2957 2956 2953 2953 2952 2951 2951 2949 2947 2945 2945 2945 2943 2947 2945 2950 2948 2948 2949 2950 2952 2950 2958 2958 2959 2960
2986 2985 2984 2981 2975 2972 2973 2982 2972 2970 2967 2965 2964 2964 2963 2961 2960 2959 2957 2955 2953 2951 2950 2950 2947 2945 2943 2942 2941 2940 2942 2942 2943 2944 2942 2941 2942 2942 2940 2945 2947 2950 2951 2953
2990 2987 2987 2982 2979 2979 2983 2979 2976 2974 2970 2968 2966 2964 2962 2960 2960 2958 2956 2954 2953 2950 2948 2946 2946 2945 2940 2937 2935 2936 2936 2937 2938 2935 2934 2933 2933 2933 2933 2933 2937 2939 2940 2942
2997 2995 2990 2987 2985 2983 2982 2980 2978 2975 2973 2970 2967 2965 2964 2962 2960 2959 2957 2953 2950 2947 2947 2945 2943 2940 2938 2936 2934 2932 2929 2927 2925 2924 2922 2921 2920 2920 2921 2924 2922 2924 2925 2927
2998 2996 2992 2990 2987 2984 2983 2981 2978 2974 2972 2970 2968 2967 2964 2961 2959 2955 2952 2950 2949 2948 2947 2944 2941 2938 2934 2931 2929 2927 2924 2920 2916 2911 2907 2906 2905 2906 2907 2907 2907 2907 2908 2909
2997 2995 2992 2990 2986 2985 2983 2980 2977 2975 2973 2970 2969 2966 2964 2961 2958 2955 2952 2950 2948 2945 2943 2941 2938 2934 2931 2926 2921 2916 2912 2908 2903 2902 2899 2895 2892 2890 2887 2889 2890 2889 2891 2892
2995 2993 2991 2989 2986 2983 2981 2979 2977 2975 2974 2971 2969 2966 2964 2960 2957 2954 2952 2949 2947 2944 2940 2936 2931 2926 2921 2916 2911 2906 2901 2898 2892 2887 2885 2883 2882 2874 2872 2868 2867 2870 2871 2873
2993 2991 2988 2986 2984 2982 2980 2978 2975 2973 2971 2969 2967 2964 2960 2957 2954 2951 2948 2946 2943 2938 2934 2930 2926 2920 2914 2909 2905 2899 2894 2888 2882 2880 2874 2868 2864 2858 2855 2854 2848 2852 2853 2855
2990 2987 2984 2982 2981 2979 2977 2975 2973 2970 2968 2966 2963 2960 2957 2953 2950 2947 2944 2940 2936 2931 2927 2923 2919 2915 2909 2904 2899 2893 2887 2882 2876 2870 2862 2854 2848 2843 2840 2840 2842 2843 2842 2840
2987 2984 2981 2979 2977 2976 2974 2972 2969 2967 2964 2961 2958 2955 2952 2948 2945 2942 2938 2933 2930 2925 2921 2918 2914 2910 2904 2899 2893 2887 2880 2873 2866 2858 2849 2842 2836 2831 2830 2829 2826 2828 2827 2829
2984 2982 2979 2977 2975 2973 2970 2968 2966 2963 2959 2956 2952 2949 2945 2942 2938 2935 2931 2927 2922 2919 2915 2911 2907 2902 2897 2891 2885 2878 2872 2864 2855 2846 2839 2833 2826 2823 2818 2819 2814 2813 2812 2813
2980 2978 2976 2974 2972 2970 2967 2963 2960 2956 2952 2949 2944 2940 2936 2932 2929 2926 2922 2919 2915 2912 2908 2904 2900 2896 2891 2885 2879 2872 2865 2858 2850 2842 2834 2826 2822 2818 2816 2813 2809 2804 2799 2797
2977 2975 2973 2970 2967 2964 2960 2956 2952 2948 2944 2940 2935 2930 2926 2922 2918 2914 2912 2909 2906 2904 2901 2897 2893 2890 2885 2880 2874 2868 2861 2855 2847 2838 2830 2824 2818 2812 2810 2806 2802 2797 2793 2792
2973 2971 2968 2965 2962 2957 2953 2949 2945 2941 2936 2931 2926 2922 2917 2913 2909 2905 2902 2900 2897 2895 2893 2890 2887 2883 2879 2874 2868 2863 2857 2850 2843 2834 2826 2819 2813 2808 2805 2802 2799 2796 2793 2792
2969 2966 2963 2960 2956 2951 2947 2943 2938 2934 2929 2924 2919 2914 2909 2905 2901 2897 2895 2893 2891 2888 2886 2883 2880 2877 2873 2869 2864 2859 2853 2848 2840 2832 2824 2817 2810 2804 2802 2800 2797 2795 2792 2792
2963 2961 2957 2954 2950 2947 2942 2938 2933 2929 2924 2918 2913 2908 2902 2898 2894 2890 2887 2886 2886 2884 2881 2879 2875 2872 2868 2865 2860 2856 2851 2846 2839 2831 2823 2816 2810 2805 2802 2799 2797 2795 2793 2792
2959 2955 2952 2948 2945 2941 2937 2932 2928 2923 2918 2913 2908 2902 2898 2893 2889 2886 2882 2882 2882 2879 2877 2874 2871 2867 2864 2860 2857 2853 2849 2844 2838 2832 2825 2818 2812 2807 2804 2801 2798 2797 2797 2798
2954 2950 2947 2943 2940 2936 2932 2927 2923 2918 2914 2909 2904 2899 2895 2891 2887 2885 2883 2881 2878 2876 2873 2870 2867 2864 2860 2857 2853 2850 2847 2843 2839 2833 2828 2822 2817 2812 2809 2806 2804 2802 2802 2803
2949 2945 2942 2938 2935 2931 2928 2923 2919 2915 2910 2905 2901 2896 2893 2890 2888 2883 2880 2877 2874 2871 2868 2866 2863 2860 2857 2854 2850 2848 2845 2842 2839 2835 2831 2826 2822 2818 2814 2812 2811 2810 2809 2810
2942 2940 2937 2933 2930 2927 2923 2920 2915 2911 2907 2904 2900 2896 2892 2888 2884 2880 2876 2872 2868 2864 2862 2861 2859 2857 2854 2851 2849 2846 2844 2842 2840 2837 2833 2830 2827 2824 2820 2818 2817 2816 2816 2818
2936 2934 2931 2928 2925 2922 2919 2916 2912 2909 2905 2901 2898 2895 2891 2888 2883 2879 2873 2869 2865 2862 2859 2858 2856 2854 2852 2850 2848 2845 2842 2841 2840 2838 2836 2834 2832 2830 2827 2826 2825 2825 2826 2826
2930 2928 2925 2923 2920 2918 2914 2912 2908 2905 2902 2898 2895 2892 2889 2886 2882 2878 2873 2869 2865 2862 2860 2858 2856 2854 2852 2850 2848 2845 2843 2841 2839 2838 2837 2836 2835 2834 2833 2833 2832 2831 2831 2831
Wind_Speed
26 12 12 32 25 26 27 24 17 18 22 23 25 23 23 25 30 33 32 32 30 30 26 37 32 25 21 17 14 16 21 24 31 36 34 37 45 44 44 43 38 38 38 44
19 25 7 29 36 28 25 22 20 19 20 14 12 13 30 27 23 27 31 32 33 31 29 28 29 28 31 27 25 19 7 6 11 18 25 25 26 22 44 34 34 36 26 39
12 31 12 23 33 33 31 32 29 30 27 22 30 30 30 24 25 27 25 25 23 24 24 24 24 24 21 22 18 16 19 19 17 10 7 9 16 21 17 13 27 30 33 30
13 24 7 22 25 23 20 25 25 28 27 26 25 25 25 23 19 17 12 15 15 17 21 21 22 24 26 25 20 16 14 12 13 15 15 14 17 14 15 16 16 23 27 23
7 11 8 16 28 26 15 26 22 27 27 21 19 15 19 14 11 12 13 15 16 19 20 20 19 18 19 22 24 23 19 19 17 14 15 16 16 19 19 18 19 21 20 23
9 3 4 17 18 17 8 22 25 26 24 20 13 13 14 12 11 12 14 16 18 19 21 24 25 25 25 24 25 26 25 23 23 23 21 20 20 20 22 25 26 27 27 25
13 3 4 23 17 9 11 9 22 22 21 20 19 18 16 17 17 17 18 19 19 21 21 22 25 27 29 29 29 28 27 28 29 31 29 28 28 28 26 29 29 31 32 32
8 6 5 17 19 19 11 13 17 18 20 18 18 18 18 18 17 17 19 20 21 23 26 27 26 27 29 31 33 35 35 34 33 32 33 34 34 33 34 35 36 36 35 33
9 11 10 15 11 10 11 14 16 18 17 17 17 16 15 14 15 17 18 19 21 20 20 25 31 30 28 31 32 32 34 36 38 40 40 39 40 39 39 40 42 42 41 40
8 15 12 14 15 14 11 13 17 22 19 16 15 14 14 16 16 17 18 18 18 20 22 24 27 29 30 32 33 33 35 35 37 39 41 45 46 45 47 47 47 47 46 46
11 15 16 14 16 13 13 16 18 19 16 14 14 15 15 15 15 16 18 19 21 23 25 28 27 26 29 32 35 34 34 35 36 36 39 42 45 49 49 50 51 53 54 53
14 16 20 16 11 13 16 18 17 14 14 13 13 13 15 17 18 19 20 21 23 25 27 29 30 30 30 33 33 33 34 34 33 33 36 38 41 43 46 49 50 51 53 55
16 19 20 16 12 14 16 16 13 14 15 16 17 19 21 22 23 24 25 27 28 28 29 30 32 32 33 34 34 34 37 36 35 38 40 39 37 36 39 38 45 49 51 52
16 19 18 14 15 17 18 16 16 15 16 19 22 25 26 28 29 29 30 31 30 30 31 32 32 33 34 34 35 35 37 37 38 40 40 40 40 37 33 30 28 31 36 40
15 16 13 12 13 15 16 17 18 20 22 25 28 30 31 32 31 30 30 30 30 30 31 32 32 32 33 33 35 36 38 39 39 39 39 41 38 34 31 32 33 37 38 39
13 13 10 11 13 14 17 20 23 25 28 30 32 32 32 32 32 32 31 32 32 31 31 32 32 33 34 34 35 37 38 39 39 40 40 38 34 34 31 32 37 39 39 38
12 12 15 17 18 20 23 27 29 31 32 33 35 36 36 37 37 36 34 34 33 33 32 32 31 32 32 32 33 35 37 38 39 39 38 35 33 32 27 30 34 32 29 26
13 15 19 21 24 28 29 30 30 31 32 33 36 37 37 37 38 37 36 34 33 31 30 30 30 30 30 29 31 32 33 35 37 36 34 28 29 25 22 24 25 19 15 16
16 19 22 25 28 29 29 29 28 28 29 31 34 34 34 34 33 32 32 30 29 29 26 27 27 27 28 27 29 29 31 34 33 31 30 26 25 19 18 20 18 14 11 13
18 21 24 27 29 27 26 26 27 28 29 31 32 33 34 32 30 29 27 25 22 24 25 25 26 26 26 26 26 26 28 30 30 30 27 23 19 14 12 12 11 9 11 14
19 22 26 27 25 25 25 25 26 27 27 28 29 29 29 28 27 27 26 21 18 21 22 23 25 25 24 24 23 23 24 26 28 27 26 21 15 12 11 11 10 5 3 6
19 22 23 23 23 24 25 24 24 25 27 27 27 27 26 25 23 20 17 15 17 19 20 21 22 23 23 22 21 20 21 22 24 24 22 21 16 13 10 7 4 2 4 9
19 23 24 24 23 24 24 24 25 26 25 25 26 25 24 22 23 20 16 17 16 18 21 22 24 24 22 20 19 18 19 19 17 20 19 19 18 13 12 13 12 11 12 13
24 26 27 25 23 24 23 23 22 22 24 24 25 24 23 21 19 24 25 26 27 26 26 25 25 25 21 17 17 15 16 16 13 13 14 15 15 15 13 11 10 11 12 13
23 25 26 25 23 23 22 21 21 20 21 20 20 21 22 25 25 26 25 24 23 21 18 17 17 17 15 15 16 13 12 12 13 7 10 11 14 12 13 15 15 15 15 16
23 25 25 24 23 23 21 20 20 18 18 17 18 18 20 22 23 25 24 22 18 16 13 13 13 13 12 13 15 13 10 10 11 8 4 6 7 7 10 13 15 20 19 17
25 24 25 23 21 21 21 20 19 18 17 16 16 17 17 18 21 24 22 21 17 13 12 12 13 12 10 12 14 15 10 10 6 10 7 4 2 2 4 6 6 5 9 11
Wind_Direction
329 344 7 30 22 17 27 30 36 91 100 105 104 90 82 78 73 65 62 58 45 50 51 40 45 58 83 106 121 144 168 173 177 190 193 197 215 213 220 222 223 222 239 241
341 358 336 25 33 36 32 26 32 62 63 85 82 104 79 74 69 67 61 55 47 38 31 41 38 30 33 27 27 35 85 160 178 182 189 198 206 209 203 206 211 224 228 233
317 356 7 21 14 23 42 53 67 66 84 90 85 85 81 80 63 58 54 49 41 41 42 29 19 22 22 24 17 13 16 8 360 358 322 235 220 214 216 221 214 224 233 236
315 354 40 5 6 9 17 54 61 74 68 64 70 81 76 67 61 58 56 40 21 14 14 4 7 358 352 350 347 358 359 344 342 334 332 324 316 305 285 266 248 242 235 239
350 350 347 359 356 353 37 40 47 52 42 48 54 57 62 63 45 28 9 360 351 350 350 346 344 344 340 340 340 344 330 330 319 314 304 297 291 291 285 279 283 270 260 265
352 2 1 342 345 351 76 35 36 42 31 29 28 28 28 17 9 356 343 340 339 338 335 332 330 328 327 325 320 316 314 306 305 298 297 291 285 275 271 273 266 264 261 256
10 346 353 357 1 28 59 20 32 15 7 2 2 3 358 353 346 345 344 342 341 338 335 333 329 326 324 320 316 312 305 299 294 291 287 284 281 279 274 268 265 261 259 258
9 6 359 35 45 61 51 33 8 359 349 350 346 345 344 342 345 345 342 338 334 331 329 329 330 327 325 320 313 307 302 297 293 290 286 282 278 275 273 272 269 265 261 254
42 19 357 6 21 24 7 358 358 350 346 344 342 337 337 337 338 339 340 342 344 342 340 331 324 322 322 320 313 311 307 300 293 288 285 280 278 277 273 269 269 269 266 261
23 16 12 10 3 349 349 345 348 351 345 339 338 335 334 335 338 343 347 348 344 338 337 330 321 316 315 317 314 307 304 301 296 292 287 283 280 276 273 272 270 268 266 265
347 357 2 355 343 343 336 333 339 339 333 331 332 333 333 335 337 337 339 338 336 337 337 339 333 326 319 317 315 311 307 304 300 294 290 287 284 282 279 274 270 267 266 264
331 337 336 336 340 340 334 331 327 327 326 326 326 324 327 329 330 329 328 328 328 328 330 331 332 330 325 326 324 321 318 314 308 303 299 293 287 282 278 276 275 271 267 264
323 324 325 323 331 329 321 322 323 319 321 325 328 330 329 327 325 324 322 320 319 320 322 325 329 330 326 327 326 324 323 321 315 313 310 305 299 288 276 270 273 271 268 265
316 320 322 322 315 314 315 311 316 311 310 312 315 316 317 318 317 316 315 314 316 318 319 321 326 327 326 322 325 325 324 322 316 314 315 312 308 304 291 282 274 269 270 269
314 321 318 314 311 309 306 303 306 307 307 307 306 307 309 310 310 310 310 311 313 315 317 317 320 322 323 320 323 325 325 324 320 319 319 314 307 304 294 283 283 286 279 264
312 316 327 332 327 318 312 308 306 304 303 302 302 303 304 304 305 306 307 307 308 311 313 314 317 320 323 321 321 324 325 327 325 321 319 313 308 307 301 294 293 292 280 266
307 316 326 325 320 317 314 311 308 305 302 301 301 300 300 300 301 301 300 300 301 303 306 309 313 317 321 319 319 322 326 329 326 323 321 312 310 307 300 300 302 291 280 261
305 311 314 317 317 315 313 311 309 307 307 305 303 303 304 303 301 300 299 298 298 299 303 304 308 311 318 318 319 322 326 328 329 329 325 317 312 302 305 304 301 286 272 243
302 306 311 312 313 314 315 315 314 313 313 311 310 309 307 306 305 302 302 301 303 304 303 303 304 309 315 319 319 323 326 329 332 336 333 321 317 306 290 300 293 279 252 227
301 305 308 311 314 315 317 318 319 320 319 317 316 314 313 314 309 305 307 303 308 311 312 311 308 311 315 319 319 323 326 332 338 343 342 336 329 317 302 303 292 286 244 220
303 304 305 309 314 316 319 322 325 327 327 325 324 323 321 321 316 307 301 303 306 313 318 320 316 314 316 320 320 325 329 332 341 346 350 347 357 349 324 300 291 297 276 206
310 313 315 317 316 318 321 325 329 332 336 337 334 334 332 332 334 332 319 311 314 320 325 325 323 319 320 323 322 327 331 334 341 347 355 359 5 24 30 35 46 183 152 132
320 322 321 319 318 321 324 329 333 337 340 341 343 343 342 341 343 342 329 311 307 318 326 332 334 326 322 323 322 327 333 334 339 346 357 5 12 26 44 54 66 87 114 133
316 320 323 320 317 321 325 330 331 335 342 347 350 351 352 351 334 323 322 319 316 311 313 317 322 320 318 324 327 328 333 334 342 341 360 10 17 35 56 61 67 76 90 103
307 312 312 317 316 319 322 327 329 337 342 346 348 350 348 344 343 340 336 331 324 316 303 305 315 315 322 328 335 329 326 334 347 353 352 22 25 45 60 80 91 103 111 113
307 312 311 313 313 315 320 325 325 332 337 343 346 346 344 343 342 345 347 346 344 341 334 322 325 327 337 338 347 340 327 327 354 357 18 9 33 29 44 62 90 105 115 128
297 303 307 309 310 313 320 323 322 323 329 337 343 344 345 349 351 353 356 359 0 354 346 346 344 342 354 352 354 357 339 324 341 358 7 34 53 22 55 106 97 93 111 115